DW7764 Weather Reports


Display with metric or nautical units.
time (UTC)temp
F
wind
direction
speed
MPH
gust
MPH
rain 1hr
in
rain 24hr
in
rain mn
in
humidity
%
barometer
mb
20260507043029 47 294 0.0 0.0 0.00 0.00 0.00 99 1018.4
20260507041543 47 294 0.0 0.0 0.00 0.00 0.00 99 1018.4
20260507040026 47 293 0.0 1.0 0.00 0.00 0.00 99 1018.5
20260507034526 48 293 0.0 1.0 0.00 0.00 0.00 99 1018.3
20260507033022 48 294 0.0 1.0 0.00 0.00 0.00 99 1018.5
20260507031520 49 294 1.0 2.0 0.00 0.00 0.00 98 1018.5
20260507030017 50 293 0.0 0.0 0.00 0.00 0.00 96 1018.6
20260507024516 50 295 0.0 1.0 0.00 0.00 0.00 97 1018.5
20260507023015 50 294 0.0 0.0 0.00 0.00 0.00 95 1018.4
20260507021514 50 293 0.0 0.0 0.00 0.00 0.00 96 1018.4
20260507020014 50 294 0.0 0.0 0.00 0.00 0.00 97 1018.5
20260507014523 50 293 0.0 0.0 0.00 0.01 0.00 97 1018.8
20260507013030 50 293 0.0 0.0 0.00 0.01 0.00 97 1018.7
20260507011523 50 293 0.0 0.0 0.00 0.01 0.00 96 1018.6
20260507010009 50 294 0.0 0.0 0.00 0.01 0.00 96 1018.7
20260507004507 50 293 0.0 0.0 0.00 0.01 0.00 97 1018.9
20260507003005 50 293 0.0 0.0 0.00 0.01 0.00 96 1018.9
20260507001504 50 295 0.0 0.0 0.00 0.01 0.00 96 1019.0
20260507000017 51 293 0.0 0.0 0.00 0.01 0.00 96 1019.0
20260506234503 50 294 0.0 0.0 0.00 0.01 0.00 94 1019.1
20260506233002 51 294 0.0 0.0 0.00 0.01 0.00 94 1019.0
20260506231559 52 294 0.0 1.0 0.00 0.01 0.00 91 1019.1
20260506230059 52 293 0.0 0.0 0.00 0.01 0.00 93 1019.1
20260506224557 53 294 0.0 2.0 0.00 0.01 0.00 93 1019.0
20260506223118 51 152 0.0 0.0 0.00 0.01 0.00 91 1019.0
20260506221557 53 152 0.0 0.0 0.00 0.01 0.00 92 1019.0
20260506220051 52 153 0.0 0.0 0.00 0.01 0.00 91 1018.9
20260506214553 53 152 0.0 0.0 0.00 0.01 0.01 89 1018.8
20260506213049 54 153 0.0 0.0 0.00 0.01 0.01 89 1018.8
20260506211548 54 153 0.0 1.0 0.00 0.01 0.01 90 1018.9
20260506210048 53 152 0.0 0.0 0.00 0.01 0.01 89 1018.8
20260506204546 53 152 0.0 0.0 0.00 0.01 0.01 87 1018.6
20260506203046 55 152 0.0 0.0 0.00 0.01 0.01 85 1018.3
20260506201543 55 153 0.0 0.0 0.00 0.01 0.01 84 1018.2
20260506194540 58 152 0.0 0.0 0.00 0.01 0.01 78 1017.7
20260506193041 59 152 0.0 2.0 0.00 0.01 0.01 76 1017.4
20260506191539 60 134 1.0 4.0 0.00 0.01 0.01 75 1017.2
20260506190038 60 129 0.0 4.0 0.00 0.01 0.01 73 1017.1
20260506184537 61 190 0.0 6.0 0.00 0.01 0.01 71 1016.9
20260506183037 62 96 2.0 6.0 0.00 0.01 0.01 68 1016.6
20260506181538 63 177 3.0 9.0 0.00 0.01 0.01 66 1016.4
20260506180046 64 101 1.0 9.0 0.00 0.01 0.01 65 1016.3
20260506174536 64 116 1.0 8.0 0.00 0.02 0.01 64 1016.2
20260506173035 66 148 4.0 9.0 0.00 0.02 0.01 60 1016.0
20260506171547 66 125 3.0 5.0 0.00 0.02 0.01 56 1015.9
20260506170036 67 155 2.0 5.0 0.00 0.02 0.01 56 1015.7
20260506164536 67 180 3.0 10.0 0.00 0.17 0.01 54 1015.6
20260506163041 67 127 4.0 10.0 0.00 0.17 0.01 53 1015.5
20260506161544 68 176 2.0 7.0 0.00 0.17 0.01 54 1015.4
20260506160032 68 180 5.0 11.0 0.00 0.17 0.01 54 1015.4
20260506154529 68 125 5.0 12.0 0.00 0.17 0.01 55 1015.2
20260506153029 69 107 7.0 15.0 0.00 0.17 0.01 54 1015.2
20260506151528 69 95 4.0 10.0 0.00 0.17 0.01 53 1015.3
20260506150030 69 149 4.0 10.0 0.00 0.17 0.01 51 1015.4
20260506144527 70 115 1.0 4.0 0.00 0.17 0.01 49 1015.5
20260506143025 71 110 1.0 7.0 0.00 0.17 0.01 47 1015.5
20260506141523 71 111 3.0 8.0 0.00 0.17 0.01 48 1015.6
20260506140023 71 166 3.0 10.0 0.00 0.17 0.01 49 1015.8
20260506134539 69 120 4.0 8.0 0.00 0.17 0.01 51 1015.9
20260506133019 69 152 4.0 14.0 0.00 0.17 0.01 51 1016.2
20260506131516 68 198 5.0 11.0 0.00 0.17 0.01 52 1016.3
20260506130018 68 159 4.0 11.0 0.00 0.17 0.01 53 1016.3
20260506124516 69 138 1.0 4.0 0.00 0.17 0.01 55 1016.3
20260506123009 66 158 6.0 12.0 0.00 0.17 0.01 75 1016.4
20260506121509 63 148 4.0 7.0 0.00 0.17 0.01 94 1016.5
20260506120008 62 205 2.0 7.0 0.00 0.17 0.01 95 1016.6
20260506114503 61 23 1.0 5.0 0.00 0.17 0.01 96 1016.7
20260506113100 61 352 1.0 4.0 0.00 0.17 0.01 96 1016.9
20260506111613 61 296 3.0 7.0 0.00 0.17 0.01 94 1017.1
20260506110058 61 229 0.0 4.0 0.00 0.17 0.01 96 1017.2
20260506104603 60 271 1.0 7.0 0.00 0.17 0.01 95 1017.3
20260506103055 59 298 4.0 9.0 0.00 0.17 0.01 95 1017.5
20260506101552 59 207 0.0 6.0 0.00 0.17 0.01 97 1017.5
20260506100051 58 283 2.0 7.0 0.00 0.17 0.01 97 1017.7
20260506094549 58 160 0.0 6.0 0.00 0.17 0.01 98 1017.7
20260506093053 57 274 1.0 8.0 0.00 0.17 0.01 97 1017.8
20260506091548 57 282 2.0 7.0 0.00 0.17 0.01 96 1017.8
20260506090045 58 205 0.0 5.0 0.00 0.17 0.01 99 1017.8
20260506084542 56 298 2.0 9.0 0.00 0.17 0.01 98 1017.6
20260506083051 56 271 1.0 5.0 0.00 0.17 0.01 98 1017.6
20260506081546 55 279 2.0 7.0 0.00 0.17 0.01 99 1017.6
20260506073033 52 280 1.0 4.0 0.00 0.17 0.01 100 1017.4
20260506071532 52 274 0.0 4.0 0.00 0.17 0.01 100 1017.3
20260506061534 48 288 0.0 0.0 0.00 0.17 0.01 100 1017.3
20260506044518 45 288 1.0 2.0 0.00 0.17 0.01 100 1016.6